OPS 4682 DEB, 20031

Orbit data source: Space-Track

OPS 4682 DEB, 20031 is space debris in LEO originally from a launch on Sat, 03 Apr 1965 UTC launched from the Air Force Western Test Range (AFWTR). Debris objects in space refer to the collection of defunct objects orbiting the Earth. Examples of debris include non-operational satellites, rocket bodies, and fragments generated from explosions, collisions, or faulty payload assembly.

Loading next visibility...
Identifier
20031, 1965-027BB
Orbit
LEO
Country
Flag of USUS
Related business
Manufacturer
Unknown
Mission
Spacecraft
Bus & Motor
Unknown
Mass
Unknown
Launch date (UTC)
1965-04-03 (61 years ago)
Launch vehicle
Unknown
Launch site
Air Force Western Test Range (AFWTR)
Object type
Payload
Rocket body
Debris
Shape & HBR
Unknown shape, 0.1 m
Radar Cross Section
Small (<0.1 m²)

Expand to show TLE details & history
Last TLE update: 15 hours ago

TLE from 15 hours ago
0 OPS 4682 DEB
1 20031U 65027BB  26107.17010804  .00000594  00000-0  20047-2 0  9996
2 20031  90.2333 358.0089 0030595 214.9165 300.9621 12.97921463759298
Epoch: 2026-04-17T04:04Z
TLE epoch observation values (Epoch: 2026-04-17T04:04:57.334Z)
Latitude
24.44507°
Longitude
-88.43162°
Altitude
1,261.205 km
Speed
7.232 km/s
True Right ascension
11h 52m 27s
True Declination
24° 19' 27"
Sunlit
Object was in full shadow at epoch
Visualization orbit readout
Latitude
Unknown
Longitude
Unknown
Altitude
Unknown
Speed
Unknown
Apparent Right ascension
Unknown
Apparent Declination
Unknown
Sunlit
N/A
Visualization observer readout
Local Sidereal Time
01:50:29
Azimuth
Unknown
Elevation
Unknown
Doppler factor
Unknown
Orbital elements
Apogee altitude
1,290.763 km
Perigee altitude
1,243.98 km
Semi-major axis
7,645.508 km
Eccentricity
0.00306
Inclination
90.2333°
RAAN
358.0089°
Arg. of periapsis
214.9165°
True anomaly
300.66087°
Mean anomaly
300.9621°
Eccentric anomaly
300.81155°
Mean motion
3.24664 °/min
Orbital period
110.88 mins
BSTAR
0.0020047
Loading maneuver chart data...
Computing Atmospheric mass density...
Loading historical data...
Loading historical data...
Loading historical data...
Loading historical data...
Loading historical data...
Loading historical data...
Loading historical data...

Documentation

Showing up to 5 results
|